Regional Weather Roundup
Issued by NWS Little Rock, AR

Home | Current Version | Previous Version | Text Only | Print | Product List | Glossary Off
Versions: 1 2 3 4 5 6 7 8 9 10 11 12 13 14 15 16 17 18 19 20 21 22 23 24 25 26 27 28 29 30 31 32 33 34 35 36 37 38 39 40 41 42 43 44 45 46 47 48 49 50

000
ASUS44 KLZK 292105
RWRLZK

WEATHER ROUNDUP FOR ARKANSAS
NATIONAL WEATHER SERVICE LITTLE ROCK AR
400 PM CDT MON MAY 29 2017

NOTE: "FAIR" INDICATES FEW OR NO CLOUDS BELOW 12,000 FEET WITH NO
SIGNIFICANT WEATHER AND/OR OBSTRUCTIONS TO VISIBILITY.

ARZ001-003-010-029-292200-
NORTHWEST ARKANSAS

CITY           SKY/WX    TMP DP  RH WIND       PRES   REMARKS
FAYETTEVILLE   SUNNY     82  56  40 W9        30.04F
FORT SMITH     SUNNY     88  50  27 CALM      30.01F HX  85
HARRISON       SUNNY     82  56  40 W7        30.02F
BENTONVILLE    SUNNY     82  54  36 NW10      30.05F
ROGERS         MOSUNNY   82  54  37 W12       30.04F
SILOAM SPGS    SUNNY     82  55  39 SW9       30.03F
HIGHFILL       MOSUNNY   83  58  42 W13       30.04F
SPRINGDALE     MOSUNNY   82  54  36 SW13      30.06F
$$

ARZ004-005-016-292200-
NORTH CENTRAL ARKANSAS

CITY           SKY/WX    TMP DP  RH WIND       PRES   REMARKS
BATESVILLE     MOSUNNY   84  55  37 W8        30.00S
FLIPPIN        SUNNY     84  54  34 W9        29.97F
MTN HOME       SUNNY     83  55  38 VRB6      29.99F
$$

ARZ040-041-292200-
WEST CENTRAL ARKANSAS

CITY           SKY/WX    TMP DP  RH WIND       PRES   REMARKS
MENA           CLOUDY    84  52  32 CALM      30.04F
MOUNT IDA      CLOUDY    83  51  33 CALM      30.01F
$$

ARZ009-017-025-026-028-292200-
NORTHEAST ARKANSAS

CITY           SKY/WX    TMP DP  RH WIND       PRES   REMARKS
JONESBORO      CLOUDY    86  52  30 SW7       29.97F
NEWPORT        CLOUDY    85  54  34 SW5       29.98F
WALNUT RIDGE   CLOUDY    84  57  39 W7        29.98S
BLYTHEVILLE    CLOUDY    84  57  39 W8        29.97F
$$

ARZ022-023-033-042-044-292200-
CENTRAL ARKANSAS

CITY           SKY/WX    TMP DP  RH WIND       PRES   REMARKS
LITTLE ROCK    CLOUDY    83  56  39 CALM      29.99F
N LITTLE ROCK    N/A     82  60  47 NW5       29.99F
JACKSONVILLE   MOSUNNY   85  60  42 NW6       29.99F
CONWAY           N/A     84  57  39 NW5       29.98F
SEARCY         MOSUNNY   85  62  46 SW6       30.01F HX  85
HOT SPRINGS    CLOUDY    84  56  38 SW5       30.01F
RUSSELLVILLE   CLOUDY    85  54  34 MISG      29.99F
CLINTON        FAIR      84  57  39 VRB5      30.00F
$$

ARZ036-292200-
EAST ARKANSAS

CITY           SKY/WX    TMP DP  RH WIND       PRES   REMARKS
WEST MEMPHIS   CLOUDY    83  59  44 VRB3      29.97F
$$

ARZ050-053-066-070-073-292200-
SOUTHWEST ARKANSAS

CITY           SKY/WX    TMP DP  RH WIND       PRES   REMARKS
ARKADELPHIA    FAIR      83  58  42 N3        30.00F
CAMDEN         CLOUDY    82  66  57 CALM      29.99F HX  85
TEXARKANA      MOSUNNY   83  57  41 N6        30.01F
EL DORADO      CLOUDY    79  68  69 VRB3      30.01F
DE QUEEN       CLOUDY    85  55  35 CALM      30.00F
$$

ARZ056-057-069-292200-
SOUTHEAST ARKANSAS

CITY           SKY/WX    TMP DP  RH WIND       PRES   REMARKS
PINE BLUFF     LGT RAIN  82  59  45 N5        30.00F
STUTTGART      CLOUDY    82  54  36 NW7       30.00F
MONTICELLO     PTSUNNY   79  68  69 CALM      30.00F

$$





USA.gov is the U.S. government's official web portal to all federal, state and local government web resources and services.